CZ-2C DEB

基本信息
目录编号:
55692
目录名称:
CZ-2C DEB
国际标识:
2023-025C
轨道中心:
EARTH
物体状态:
已陨落(2023-08-22)
发射日期:
2023-02-24 UTC
轨道信息
数据来源: 国际轨道数据
星历时间: 2023-08-21T19:47:31+0800
半长轴: 6559.201km
偏心率: 0.0018802
轨道倾角: 97.592°
近地点辐角: 281.129°
升交点赤经: 314.052°
平近点角: 78.789°
近地点: 168.733km
远地点: 193.399km
周期: 88.112分钟
每日圈数: 16.342797
详细信息
发射场:
JSC
轨道高度:
LEO
数据来源:
AOE Integration Group
参考系:
TEME
时间系统:
UTC
历元类型:
SGP4
2D轨道图
3D轨道图
轨道高度分析图
轨道倾角分析图
轨道综合分析图
查看轨道综合分析图